Time,TemperatureF,DewpointF,PressureIn,WindDirection,WindDirectionDegrees,WindSpeedMPH,WindSpeedGustMPH,Humidity,HourlyPrecipIn,Conditions,Clouds,dailyrainin,SoftwareType,DateUTC
2013-06-07 00:01:00,81.0,53.0,29.81,NW,305,20.0,30.0,38,0.00,,,0.00,,2013-06-07 07:01:00,
2013-06-07 00:11:00,81.0,53.0,29.81,NW,305,20.0,30.0,38,0.00,,,0.00,,2013-06-07 07:11:00,
2013-06-07 00:22:00,81.0,53.0,29.81,WNW,302,23.0,30.0,38,0.00,,,0.00,,2013-06-07 07:22:00,
2013-06-07 00:32:00,80.0,53.0,29.81,NW,305,21.0,31.0,39,0.00,,,0.00,,2013-06-07 07:32:00,
2013-06-07 00:42:00,80.0,53.0,29.81,NW,305,21.0,31.0,39,0.00,,,0.00,,2013-06-07 07:42:00,
2013-06-07 00:52:00,81.0,54.0,29.81,NW,305,23.0,33.0,39,0.00,,,0.00,,2013-06-07 07:52:00,
2013-06-07 01:02:00,81.0,53.0,29.81,NW,313,21.0,30.0,38,0.00,,,0.00,,2013-06-07 08:02:00,
2013-06-07 01:11:00,81.0,53.0,29.81,NW,313,21.0,30.0,38,0.00,,,0.00,,2013-06-07 08:11:00,
2013-06-07 01:22:00,81.0,52.0,29.81,NW,315,19.0,28.0,36,0.00,,,0.00,,2013-06-07 08:22:00,
2013-06-07 01:31:00,81.0,52.0,29.82,NW,315,22.0,27.0,36,0.00,,,0.00,,2013-06-07 08:31:00,
2013-06-07 01:42:00,81.0,52.0,29.82,NW,315,22.0,27.0,36,0.00,,,0.00,,2013-06-07 08:42:00,
2013-06-07 01:52:00,81.0,52.0,29.82,NW,315,19.0,29.0,36,0.00,,,0.00,,2013-06-07 08:52:00,
2013-06-07 02:01:00,81.0,52.0,29.81,NW,310,18.0,29.0,36,0.00,,,0.00,,2013-06-07 09:01:00,
2013-06-07 02:11:00,81.0,52.0,29.81,NW,310,18.0,29.0,36,0.00,,,0.00,,2013-06-07 09:11:00,
2013-06-07 02:22:00,81.0,51.0,29.81,NW,309,15.0,24.0,35,0.00,,,0.00,,2013-06-07 09:22:00,
2013-06-07 02:32:00,81.0,51.0,29.80,NW,312,14.0,21.0,35,0.00,,,0.00,,2013-06-07 09:32:00,
2013-06-07 02:43:00,81.0,51.0,29.80,NW,312,14.0,21.0,35,0.00,,,0.00,,2013-06-07 09:43:00,
2013-06-07 02:53:00,81.0,51.0,29.80,NW,315,13.0,19.0,35,0.00,,,0.00,,2013-06-07 09:53:00,
2013-06-07 03:02:00,81.0,52.0,29.80,NW,321,14.0,19.0,36,0.00,,,0.00,,2013-06-07 10:02:00,
2013-06-07 03:12:00,81.0,52.0,29.80,NW,321,14.0,19.0,36,0.00,,,0.00,,2013-06-07 10:12:00,
2013-06-07 03:22:00,80.0,48.0,29.80,NNE,15,4.0,18.0,33,0.00,,,0.00,,2013-06-07 10:22:00,
2013-06-07 03:32:00,76.0,47.0,29.80,NNE,23,6.0,9.0,36,0.00,,,0.00,,2013-06-07 10:32:00,
2013-06-07 03:42:00,76.0,47.0,29.80,NNE,23,6.0,9.0,36,0.00,,,0.00,,2013-06-07 10:42:00,
2013-06-07 03:52:00,78.0,48.0,29.80,NNW,348,1.0,7.0,35,0.00,,,0.00,,2013-06-07 10:52:00,
2013-06-07 04:02:00,78.0,48.0,29.81,North,0,0.0,5.0,35,0.00,,,0.00,,2013-06-07 11:02:00,
2013-06-07 04:11:00,78.0,48.0,29.81,North,0,0.0,5.0,35,0.00,,,0.00,,2013-06-07 11:11:00,
2013-06-07 04:22:00,78.0,48.0,29.81,North,0,0.0,2.0,35,0.00,,,0.00,,2013-06-07 11:22:00,
2013-06-07 04:32:00,77.0,48.0,29.81,North,0,0.0,3.0,36,0.00,,,0.00,,2013-06-07 11:32:00,
2013-06-07 04:42:00,77.0,48.0,29.81,North,0,0.0,3.0,36,0.00,,,0.00,,2013-06-07 11:42:00,
2013-06-07 04:52:00,74.0,47.0,29.81,NE,54,2.0,5.0,39,0.00,,,0.00,,2013-06-07 11:52:00,
2013-06-07 05:02:00,72.0,48.0,29.81,NNW,337,4.0,5.0,43,0.00,,,0.00,,2013-06-07 12:02:00,
2013-06-07 05:12:00,72.0,48.0,29.81,NNW,337,4.0,5.0,43,0.00,,,0.00,,2013-06-07 12:12:00,
2013-06-07 05:22:00,72.0,48.0,29.81,NNW,333,1.0,5.0,43,0.00,,,0.00,,2013-06-07 12:22:00,
2013-06-07 05:32:00,72.0,49.0,29.81,NNE,21,1.0,4.0,44,0.00,,,0.00,,2013-06-07 12:32:00,
2013-06-07 05:42:00,72.0,49.0,29.81,NNE,21,1.0,4.0,44,0.00,,,0.00,,2013-06-07 12:42:00,
2013-06-07 05:52:00,73.0,50.0,29.81,NE,43,3.0,5.0,44,0.00,,,0.00,,2013-06-07 12:52:00,
2013-06-07 06:01:00,72.0,49.0,29.81,NNE,28,2.0,5.0,44,0.00,,,0.00,,2013-06-07 13:01:00,
2013-06-07 06:11:00,72.0,49.0,29.81,NNE,28,2.0,5.0,44,0.00,,,0.00,,2013-06-07 13:11:00,
2013-06-07 06:22:00,73.0,50.0,29.82,ENE,69,1.0,4.0,44,0.00,,,0.00,,2013-06-07 13:22:00,
2013-06-07 06:32:00,73.0,49.0,29.82,NE,39,1.0,2.0,43,0.00,,,0.00,,2013-06-07 13:32:00,
2013-06-07 06:42:00,73.0,49.0,29.82,NE,39,1.0,2.0,43,0.00,,,0.00,,2013-06-07 13:42:00,
2013-06-07 06:52:00,74.0,49.0,29.82,North,0,0.0,3.0,42,0.00,,,0.00,,2013-06-07 13:52:00,
2013-06-07 07:01:00,75.0,50.0,29.82,ESE,108,2.0,4.0,42,0.00,,,0.00,,2013-06-07 14:01:00,
2013-06-07 07:11:00,75.0,50.0,29.82,ESE,108,2.0,4.0,42,0.00,,,0.00,,2013-06-07 14:11:00,
2013-06-07 07:22:00,76.0,51.0,29.82,SE,124,4.0,6.0,41,0.00,,,0.00,,2013-06-07 14:22:00,
2013-06-07 07:32:00,75.0,50.0,29.83,SSE,154,6.0,11.0,41,0.00,,,0.00,,2013-06-07 14:32:00,
2013-06-07 07:42:00,76.0,50.0,29.84,SSE,159,6.0,9.0,40,0.00,,,0.00,,2013-06-07 14:42:00,
2013-06-07 07:52:00,76.0,50.0,29.84,SSE,159,6.0,9.0,40,0.00,,,0.00,,2013-06-07 14:52:00,
2013-06-07 08:01:00,77.0,51.0,29.84,North,0,0.0,4.0,40,0.00,,,0.00,,2013-06-07 15:01:00,
2013-06-07 08:11:00,77.0,51.0,29.84,North,0,0.0,4.0,40,0.00,,,0.00,,2013-06-07 15:11:00,
2013-06-07 08:22:00,79.0,50.0,29.84,NE,41,1.0,3.0,37,0.00,,,0.00,,2013-06-07 15:22:00,
2013-06-07 08:33:00,80.0,51.0,29.84,North,0,0.0,3.0,36,0.00,,,0.00,,2013-06-07 15:33:00,
2013-06-07 08:43:00,80.0,51.0,29.84,North,0,0.0,3.0,36,0.00,,,0.00,,2013-06-07 15:43:00,
2013-06-07 08:53:00,83.0,52.0,29.85,West,263,1.0,4.0,34,0.00,,,0.00,,2013-06-07 15:53:00,
2013-06-07 09:03:00,84.0,52.0,29.84,WNW,285,1.0,3.0,33,0.00,,,0.00,,2013-06-07 16:03:00,
2013-06-07 09:12:00,84.0,52.0,29.84,WNW,285,1.0,3.0,33,0.00,,,0.00,,2013-06-07 16:12:00,
2013-06-07 09:22:00,84.0,51.0,29.84,NW,305,2.0,6.0,32,0.00,,,0.00,,2013-06-07 16:22:00,
2013-06-07 09:32:00,85.0,51.0,29.84,WNW,292,4.0,8.0,31,0.00,,,0.00,,2013-06-07 16:32:00,
2013-06-07 09:42:00,85.0,51.0,29.84,WNW,292,4.0,8.0,31,0.00,,,0.00,,2013-06-07 16:42:00,
2013-06-07 09:52:00,88.0,48.0,29.83,NW,313,2.0,5.0,25,0.00,,,0.00,,2013-06-07 16:52:00,
2013-06-07 10:01:00,91.0,49.0,29.83,SSW,206,1.0,4.0,24,0.00,,,0.00,,2013-06-07 17:01:00,
2013-06-07 10:11:00,91.0,49.0,29.83,SSW,206,1.0,4.0,24,0.00,,,0.00,,2013-06-07 17:11:00,
2013-06-07 10:22:00,94.0,45.0,29.83,NE,46,2.0,4.0,19,0.00,,,0.00,,2013-06-07 17:22:00,
2013-06-07 10:32:00,94.0,45.0,29.83,SE,125,4.0,9.0,19,0.00,,,0.00,,2013-06-07 17:32:00,
2013-06-07 10:42:00,94.0,45.0,29.83,SE,125,4.0,9.0,19,0.00,,,0.00,,2013-06-07 17:42:00,
2013-06-07 10:52:00,94.0,43.0,29.83,SE,142,1.0,8.0,17,0.00,,,0.00,,2013-06-07 17:52:00,
2013-06-07 11:02:00,94.0,43.0,29.83,East,80,3.0,10.0,17,0.00,,,0.00,,2013-06-07 18:02:00,
2013-06-07 11:12:00,94.0,43.0,29.83,East,80,3.0,10.0,17,0.00,,,0.00,,2013-06-07 18:12:00,
2013-06-07 11:21:00,95.0,42.0,29.83,ENE,72,3.0,9.0,16,0.00,,,0.00,,2013-06-07 18:21:00,
2013-06-07 11:42:00,96.0,41.0,29.83,ESE,105,7.0,12.0,15,0.00,,,0.00,,2013-06-07 18:42:00,
2013-06-07 11:52:00,95.0,40.0,29.82,NE,43,4.0,16.0,15,0.00,,,0.00,,2013-06-07 18:52:00,
2013-06-07 12:02:00,96.0,41.0,29.82,NE,52,10.0,17.0,15,0.00,,,0.00,,2013-06-07 19:02:00,
2013-06-07 12:12:00,96.0,41.0,29.82,NE,52,10.0,17.0,15,0.00,,,0.00,,2013-06-07 19:12:00,
2013-06-07 12:21:00,98.0,39.0,29.82,NE,55,4.0,14.0,13,0.00,,,0.00,,2013-06-07 19:21:00,
2013-06-07 12:32:00,98.0,37.0,29.81,ENE,58,8.0,14.0,12,0.00,,,0.00,,2013-06-07 19:32:00,
2013-06-07 12:42:00,98.0,37.0,29.81,ENE,58,8.0,14.0,12,0.00,,,0.00,,2013-06-07 19:42:00,
2013-06-07 12:52:00,99.0,37.0,29.80,ENE,72,7.0,14.0,12,0.00,,,0.00,,2013-06-07 19:52:00,
2013-06-07 13:11:00,100.0,36.0,29.80,ENE,71,5.0,13.0,11,0.00,,,0.00,,2013-06-07 20:11:00,
2013-06-07 13:22:00,100.0,34.0,29.80,ENE,74,4.0,13.0,10,0.00,,,0.00,,2013-06-07 20:22:00,
2013-06-07 13:42:00,100.0,31.0,29.80,ENE,57,1.0,17.0,9,0.00,,,0.00,,2013-06-07 20:42:00,
2013-06-07 13:52:00,101.0,34.0,29.79,East,89,5.0,15.0,10,0.00,,,0.00,,2013-06-07 20:52:00,
2013-06-07 14:02:00,101.0,32.0,29.78,SE,146,3.0,11.0,9,0.00,,,0.00,,2013-06-07 21:02:00,
2013-06-07 14:12:00,101.0,32.0,29.78,SE,146,3.0,11.0,9,0.00,,,0.00,,2013-06-07 21:12:00,
2013-06-07 14:33:00,103.0,27.0,29.77,East,88,4.0,16.0,7,0.00,,,0.00,,2013-06-07 21:33:00,
2013-06-07 14:43:00,103.0,27.0,29.77,East,88,4.0,16.0,7,0.00,,,0.00,,2013-06-07 21:43:00,
2013-06-07 14:53:00,102.0,26.0,29.76,East,81,4.0,14.0,7,0.00,,,0.00,,2013-06-07 21:53:00,
2013-06-07 15:03:00,102.0,23.0,29.75,ENE,77,4.0,17.0,6,0.00,,,0.00,,2013-06-07 22:03:00,
2013-06-07 15:13:00,102.0,23.0,29.75,ENE,77,4.0,17.0,6,0.00,,,0.00,,2013-06-07 22:13:00,
2013-06-07 15:22:00,102.0,23.0,29.75,SE,126,8.0,21.0,6,0.00,,,0.00,,2013-06-07 22:22:00,
2013-06-07 15:32:00,103.0,14.0,29.75,SE,136,13.0,22.0,4,0.00,,,0.00,,2013-06-07 22:32:00,
2013-06-07 15:42:00,103.0,14.0,29.75,SE,136,13.0,22.0,4,0.00,,,0.00,,2013-06-07 22:42:00,
2013-06-07 15:52:00,104.0,24.0,29.74,SSE,162,9.0,23.0,6,0.00,,,0.00,,2013-06-07 22:52:00,
2013-06-07 16:12:00,103.0,23.0,29.74,ESE,118,7.0,19.0,6,0.00,,,0.00,,2013-06-07 23:12:00,
2013-06-07 16:23:00,103.0,23.0,29.73,SE,139,10.0,22.0,6,0.00,,,0.00,,2013-06-07 23:23:00,
2013-06-07 16:32:00,104.0,20.0,29.73,ENE,59,5.0,8.0,5,0.00,,,0.00,,2013-06-07 23:32:00,
2013-06-07 16:42:00,104.0,20.0,29.73,ENE,59,5.0,8.0,5,0.00,,,0.00,,2013-06-07 23:42:00,
2013-06-07 16:58:00,103.0,19.0,29.72,SE,142,9.0,14.0,5,0.00,,,0.00,,2013-06-07 23:58:00,
2013-06-07 17:12:00,103.0,23.0,29.72,ENE,65,8.0,15.0,6,0.00,,,0.00,,2013-06-08 00:12:00,
2013-06-07 17:23:00,103.0,23.0,29.72,ENE,65,8.0,15.0,6,0.00,,,0.00,,2013-06-08 00:23:00,
2013-06-07 17:32:00,102.0,23.0,29.72,NE,55,9.0,14.0,6,0.00,,,0.00,,2013-06-08 00:32:00,
2013-06-07 17:43:00,102.0,23.0,29.72,NE,55,9.0,14.0,6,0.00,,,0.00,,2013-06-08 00:43:00,
2013-06-07 17:56:00,103.0,23.0,29.71,NNW,327,2.0,8.0,6,0.00,,,0.00,,2013-06-08 00:56:00,
2013-06-07 18:01:00,103.0,48.0,29.71,NW,316,9.0,20.0,16,0.00,,,0.00,,2013-06-08 01:01:00,
2013-06-07 18:22:00,98.0,51.0,29.71,WNW,298,21.0,30.0,21,0.00,,,0.00,,2013-06-08 01:22:00,
2013-06-07 18:32:00,97.0,52.0,29.71,WNW,292,19.0,27.0,22,0.00,,,0.00,,2013-06-08 01:32:00,
2013-06-07 18:42:00,97.0,52.0,29.71,WNW,292,19.0,27.0,22,0.00,,,0.00,,2013-06-08 01:42:00,
2013-06-07 19:02:00,95.0,55.0,29.70,WNW,296,23.0,35.0,26,0.00,,,0.00,,2013-06-08 02:02:00,
2013-06-07 19:22:00,94.0,54.0,29.70,WNW,294,20.0,28.0,26,0.00,,,0.00,,2013-06-08 02:22:00,
2013-06-07 19:32:00,93.0,56.0,29.73,WNW,302,22.0,32.0,29,0.00,,,0.00,,2013-06-08 02:32:00,
2013-06-07 19:43:00,91.0,55.0,29.73,WNW,295,19.0,35.0,30,0.00,,,0.00,,2013-06-08 02:43:00,
2013-06-07 20:02:00,90.0,55.0,29.74,WNW,291,23.0,32.0,31,0.00,,,0.00,,2013-06-08 03:02:00,
2013-06-07 20:12:00,90.0,55.0,29.74,WNW,291,23.0,32.0,31,0.00,,,0.00,,2013-06-08 03:12:00,
2013-06-07 20:33:00,89.0,55.0,29.74,WNW,291,23.0,35.0,32,0.00,,,0.00,,2013-06-08 03:33:00,
2013-06-07 20:44:00,89.0,55.0,29.74,WNW,291,23.0,35.0,32,0.00,,,0.00,,2013-06-08 03:44:00,
2013-06-07 20:56:00,89.0,55.0,29.75,WNW,297,19.0,30.0,32,0.00,,,0.00,,2013-06-08 03:56:00,
2013-06-07 21:02:00,87.0,56.0,29.75,WNW,297,20.0,30.0,35,0.00,,,0.00,,2013-06-08 04:02:00,
2013-06-07 21:12:00,87.0,56.0,29.75,WNW,297,20.0,30.0,35,0.00,,,0.00,,2013-06-08 04:12:00,
2013-06-07 21:22:00,87.0,55.0,29.75,WNW,294,19.0,30.0,34,0.00,,,0.00,,2013-06-08 04:22:00,
2013-06-07 21:33:00,86.0,55.0,29.75,WNW,289,23.0,31.0,35,0.00,,,0.00,,2013-06-08 04:33:00,
2013-06-07 21:42:00,86.0,55.0,29.75,WNW,289,23.0,31.0,35,0.00,,,0.00,,2013-06-08 04:42:00,
2013-06-07 21:53:00,87.0,54.0,29.75,WNW,297,15.0,29.0,32,0.00,,,0.00,,2013-06-08 04:53:00,
2013-06-07 22:02:00,86.0,54.0,29.76,WNW,290,20.0,26.0,33,0.00,,,0.00,,2013-06-08 05:02:00,
2013-06-07 22:11:00,86.0,54.0,29.76,WNW,290,20.0,26.0,33,0.00,,,0.00,,2013-06-08 05:11:00,
2013-06-07 22:22:00,85.0,53.0,29.76,WNW,294,15.0,28.0,34,0.00,,,0.00,,2013-06-08 05:22:00,
2013-06-07 22:32:00,87.0,52.0,29.76,WNW,291,17.0,26.0,30,0.00,,,0.00,,2013-06-08 05:32:00,
2013-06-07 22:42:00,87.0,52.0,29.76,WNW,291,17.0,26.0,30,0.00,,,0.00,,2013-06-08 05:42:00,
2013-06-07 22:52:00,86.0,54.0,29.76,WNW,299,17.0,25.0,33,0.00,,,0.00,,2013-06-08 05:52:00,
2013-06-07 23:01:00,86.0,54.0,29.76,WNW,302,19.0,27.0,33,0.00,,,0.00,,2013-06-08 06:01:00,
2013-06-07 23:12:00,86.0,54.0,29.76,WNW,302,19.0,27.0,33,0.00,,,0.00,,2013-06-08 06:12:00,
2013-06-07 23:22:00,85.0,52.0,29.76,WNW,303,20.0,27.0,32,0.00,,,0.00,,2013-06-08 06:22:00,
2013-06-07 23:31:00,86.0,52.0,29.76,NW,307,18.0,27.0,31,0.00,,,0.00,,2013-06-08 06:31:00,
2013-06-07 23:42:00,86.0,52.0,29.76,NW,307,18.0,27.0,31,0.00,,,0.00,,2013-06-08 06:42:00,
2013-06-07 23:52:00,86.0,53.0,29.76,NW,307,19.0,27.0,32,0.00,,,0.00,,2013-06-08 06:52:00,